This demonstration page uses our WeatherBlox Daily Observations layout. Learn more.

Left ArrowRight Arrow

39.01783, -85.05884

Hourly Observations for October 9, 2018

Temp ( °F °C ) Dew Point ( °F °C ) Humidity (%) Winds ( mph kmh ) Pressure ( in mb ) Visibility ( mi km ) Precip ( " mm )
12:52 am 00:52 Clear 74 23.3 69 20.6 85 85 SSE 9 15 30.11 1020 10 16 N/A
1:52 am 01:52 Clear 72 22.2 68 20 87 87 SSE 6 9 30.11 1020 10 16 N/A
2:52 am 02:52 Clear 73 22.8 68 20 84 84 SSE 10 17 30.11 1020 10 16 N/A
3:52 am 03:52 Clear 72 22.2 68 20 87 87 SSE 9 15 30.11 1020 10 16 N/A
4:52 am 04:52 Clear 71 21.7 67 19.4 87 87 SSE 8 13 30.11 1020 10 16 N/A
5:52 am 05:52 Mostly Clear 70 21.1 67 19.4 90 90 S 6 9 30.11 1020 10 16 N/A
6:52 am 06:52 Partly Cloudy 69 20.6 66 18.9 90 90 SSE 6 9 30.12 1020 10 16 N/A
7:52 am 07:52 Mostly Sunny 69 20.6 66 18.9 90 90 SE 8 13 30.13 1020 10 16 N/A
8:52 am 08:52 Mostly Sunny 71 21.7 67 19.4 87 87 SSE 6 9 30.14 1021 10 16 N/A
9:52 am 09:52 Partly Cloudy 76 24.4 68 20 77 77 SSE 9 15 30.14 1021 10 16 N/A
10:52 am 10:52 Mostly Cloudy 78 25.6 67 19.4 69 69 SSE 13 20 30.13 1020 10 16 N/A
11:52 am 11:52 Mostly Cloudy 80 26.7 67 19.4 64 64 SSE 12 19 30.12 1020 10 16 N/A
12:52 pm 12:52 Mostly Cloudy 81 27.2 66 18.9 61 61 S 15 24 30.10 1019 10 16 N/A
1:52 pm 13:52 Partly Cloudy 82 27.8 66 18.9 58 58 SSE 15 24 30.07 1018 10 16 N/A
2:52 pm 14:52 Partly Cloudy 84 28.9 64 17.8 51 51 S 16 26 30.04 1017 10 16 N/A
3:52 pm 15:52 Mostly Sunny 83 28.3 63 17.2 51 51 S 14 22 30.03 1017 10 16 N/A
4:52 pm 16:52 Mostly Sunny 83 28.3 64 17.8 53 53 SSE 14 22 30.01 1016 10 16 N/A
5:52 pm 17:52 Mostly Sunny 81 27.2 63 17.2 54 54 SSE 15 24 30.01 1016 10 16 N/A
6:52 pm 18:52 Mostly Sunny 78 25.6 63 17.2 60 60 SE 13 20 30.00 1016 10 16 N/A
7:52 pm 19:52 Mostly Clear 76 24.4 64 17.8 67 67 SE 13 20 29.99 1016 10 16 N/A
8:52 pm 20:52 Mostly Clear 74 23.3 64 17.8 71 71 SE 10 17 29.99 1016 10 16 N/A
9:52 pm 21:52 Clear 73 22.8 64 17.8 74 74 SE 9 15 29.99 1016 10 16 N/A
10:52 pm 22:52 Mostly Clear 72 22.2 65 18.3 79 79 SE 10 17 29.98 1015 10 16 N/A
11:52 pm 23:52 Clear 71 21.7 65 18.3 81 81 SE 9 15 29.97 1015 10 16 N/A

Powered by AerisWeather